STARLINK-2684 (48471 NORAD) Tracking and Keplerian Element Data

This shows tracking and keplerian element data for the satellite.

Feedback or suggestion? Click here.




ElementValue
Catalog48471
NameSTARLINK-2684
Epoch Orbit1464
Epoch Day215.25002315
Epoch Year2021
RAAN170.9058
Inclination53.0534
Eccentricity0.0001668
Argument of Perigee67.6541
Mean Anonmoly179.9881
Mean Motion15.06389544
Decay Rate0.00023675
L11 48471U 21040AV 21215.25002315 .00023675 00000-0 16034-2 0 9999
L22 48471 53.0534 170.9058 0001668 67.6541 179.9881 15.06389544 14649

Live tracking and technical data element details for STARLINK-2684 (NORAD 48471). STARLINK-2684 can be tracked NOW for your location showing map with azimuth and elevation plus other details from your city location.

Track the satellite on the map from your city or location and see movement details for azimuth, elevation, latitude, longitude, range, height, and movement on the map or in text.







IsCatalogInMostPopularTable: catalog: 48471, numindb: 28
Update: records affected: 1



GetName: 48471 STARLINK-2684

Hit Count: updated at: Wed, 04 Aug 2021 00:55:39 GMT